CZ-6A DEB, 61423

Orbit data source: Space-Track

CZ-6A DEB, 61423 is space debris in LEO originally from a launch on Tue, 06 Aug 2024 UTC launched from the Taiyaun Space Center, China (TSC). Debris objects in space refer to the collection of defunct objects orbiting the Earth. Examples of debris include non-operational satellites, rocket bodies, and fragments generated from explosions, collisions, or faulty payload assembly.

Loading next visibility...
Identifier
61423, 2024-140YQ
Orbit
LEO
Country
Flag of CNCN / PRC
Related business
Manufacturer
SAST
Mission
Spacecraft
Bus & Motor
Unknown
Mass
Unknown
Launch date (UTC)
2024-08-06 (2 years ago)
Launch vehicle
Unknown
Launch site
Taiyaun Space Center, China (TSC)
Object type
Payload
Rocket body
Debris
Shape & HBR
Unknown shape, 0.1 m
Radar Cross Section
Medium (>0.1 m² and <1 m²)

Expand to show TLE details & history
Last TLE update: 10 hours ago

TLE from 10 hours ago
0 CZ-6A DEB
1 61423U 24140YQ  26171.47850566  .00001203  00000-0  25879-3 0  9995
2 61423  88.8279 255.6469 0126964 294.9657  63.8405 14.52962158 96797
Epoch: 2026-06-20T11:29Z
TLE epoch observation values (Epoch: 2026-06-20T11:29:02.889Z)
Latitude
-0.00002°
Longitude
174.69231°
Altitude
680.302 km
Speed
7.537 km/s
True Right ascension
17h 02m 35s
True Declination
0° 00' 00"
Sunlit
Object was in full shadow at epoch
Visualization orbit readout
Latitude
Unknown
Longitude
Unknown
Altitude
Unknown
Speed
Unknown
Apparent Right ascension
Unknown
Apparent Declination
Unknown
Sunlit
N/A
Visualization observer readout
Local Sidereal Time
08:41:58
Azimuth
Unknown
Elevation
Unknown
Doppler factor
Unknown
Orbital elements
Apogee altitude
802.925 km
Perigee altitude
622.864 km
Semi-major axis
7,091.032 km
Eccentricity
0.0127
Inclination
88.8279°
RAAN
255.6469°
Arg. of periapsis
294.9657°
True anomaly
65.15546°
Mean anomaly
63.8405°
Eccentric anomaly
64.49707°
Mean motion
3.63479 °/min
Orbital period
99.04 mins
BSTAR
0.00025879
Loading maneuver chart data...
Computing Atmospheric mass density...
Loading historical data...
Loading historical data...
Loading historical data...
Loading historical data...
Loading historical data...
Loading historical data...
Loading historical data...

Documentation

Showing up to 5 results
|